Regional Weather Roundup
Issued by NWS Binghamton, NY

Home | Current Version | Previous Version | Text Only | Print | Product List | Glossary On
Versions: 1 2 3 4 5 6 7 8 9 10 11 12 13 14 15 16 17 18 19 20 21 22 23 24 25 26 27 28 29 30 31 32 33 34 35 36 37 38 39 40 41 42 43 44 45 46 47 48
000
ASUS41 KBGM 311910
RWRBGM
RWRBGM
BINGHAMTON REGIONAL WEATHER ROUNDUP
NATIONAL WEATHER SERVICE BINGHAMTON NY
300 PM EDT FRI JUL 31 2015

Note: "fair" indicates few or no clouds below 12,000 feet with no
significant weather and/or obstructions to visibility.

* = Station(s) that does not report precipitation, such as rain,
snow, etc, also no thunder or fog.

!NYZ009-015>018-022>025-036-037-044>046-055>057-062-312000
...CENTRAL NEW YORK...

CITY           SKY/WX    TMP DP  RH WIND       PRES   REMARKS
BINGHAMTON     MOSUNNY   78  56  46 W10       29.90F
CORTLAND       FAIR      79  55  44 W6        29.89F
DANSVILLE      MOSUNNY   84  59  42 VRB7      29.85F
ELMIRA         CLOUDY    83  59  44 W5        29.85F
ITHACA         MOSUNNY   82  58  43 W6        29.88F
HORNELL          N/A     82  57  42 NW7       29.89F
MONTICELLO     MOSUNNY   81  54  39 W12       29.91F
NORWICH        PTSUNNY   79  54  41 W6        29.88S
ONEONTA        SUNNY     75  48  38 NW8G18    29.91S
PENN YAN       MOSUNNY   84  59  42 W7G17     29.85F
ROME           SUNNY     80  59  48 W9        29.85F
SIDNEY         MOSUNNY   81  59  47 W5        29.88S
SYRACUSE       MOSUNNY   83  57  41 W7        29.83F
$$

!PAZ038>040-043-044-047-048-072-312000
...NORTHEAST PENNSYLVANIA...

CITY           SKY/WX    TMP DP  RH WIND       PRES   REMARKS
HAZLETON       SUNNY     81  55  41 W6G16     29.96F
SCRANTON       SUNNY     85  52  32 VRB3      29.89F
TOWANDA*       MOSUNNY   82  61  47 MISG      29.87F
$$
&&
KEY
WCI = WIND CHILL INDEX
VSB = VISIBILITY
HX  = HEAT INDEX
$$



USA.gov is the U.S. government's official web portal to all federal, state and local government web resources and services.